Regional Weather Roundup
Issued by NWS Green Bay, WI

Home | Current Version | Previous Version | Graphics & Text | Print | Product List | Glossary Off
Versions: 1 2 3 4 5 6 7 8 9 10 11 12 13 14 15 16 17 18 19 20 21 22 23 24 25 26 27 28 29 30 31 32 33 34 35 36 37 38 39 40 41 42 43 44 45 46 47 48 49 50

000
ASUS43 KGRB 090311
RWRGRB

NORTH-CENTRAL AND NORTHEAST WISCONSIN REGIONAL WEATHER ROUNDUP
NATIONAL WEATHER SERVICE GREEN BAY WI
900 PM CST MON FEB 08 2016

WIZ005-009-010>012-018-019-090400-
NORTH CENTRAL WISCONSIN

CITY           SKY/WX    TMP DP  RH WIND       PRES   REMARKS
IRONWOOD       CLOUDY    12  10  92 NW15G21   29.79S WCI  -4
MANITOWISH WTR LGT SNOW  11   8  87 NW7       29.76F WCI   0
ARBOR VITAE    LGT SNOW  13   9  84 NW7       29.76S VSB 1   WCI   2
EAGLE RIVER    LGT SNOW  12   6  78 NW7       29.73S WCI   1
LAND O LAKES   LGT SNOW  13   9  84 NW7       29.74S WCI   2
RHINELANDER    LGT SNOW  12   6  77 NW8       29.75S WCI   0
PHILLIPS       LGT SNOW   9   4  82 NW8       29.80S WCI  -4
ANTIGO         LGT SNOW  13   8  82 NW10G20   29.73S WCI   0
TOMAHAWK       LGT SNOW  10   6  82 NW7       29.78S WCI   0
MERRILL        FLURRIES  12   6  77 N8G16     29.79R WCI   1
$$

WIZ013-073-090400-
NORTHEAST WISCONSIN

CITY           SKY/WX    TMP DP  RH WIND       PRES   REMARKS
IRON MOUNTAIN  MIX PCPN  15   7  70 NW13      29.72S WCI   1
MARINETTE      CLOUDY    18  10  73 N9        29.74F WCI   6
OCONTO         CLOUDY    19  15  84 N7        29.76S WCI  10
$$

WIZ017-030-035>037-045-090400-
CENTRAL WISCONSIN

CITY           SKY/WX    TMP DP  RH WIND       PRES   REMARKS
MEDFORD        CLOUDY    10   4  78 NW15      29.78S WCI  -7
WAUSAU         LGT SNOW  15   9  76 NW10G20   29.76F WCI   2
MOSINEE        LGT SNOW  14  12  92 N12       29.79R WCI   0
MARSHFIELD     LGT SNOW  12   6  77 NW16      29.79R WCI  -5
WISC RAPIDS    LGT SNOW  14   7  73 N14       29.81S WCI  -1
STEVENS POINT  LGT SNOW  14  10  83 NW7       29.79R WCI   4
WAUPACA        LGT SNOW  22  17  80 NW13      29.77S WCI  10
SHAWANO        CLOUDY    21  14  73 NW12G17   29.77S WCI   9
CLINTONVILLE   CLOUDY    21  12  68 N10G17    29.76S
WAUTOMA        LGT SNOW  16  10  79 NW12      29.79S WCI   3
$$

WIZ038-039-048-051-090400-
FOX VALLEY

CITY           SKY/WX    TMP DP  RH WIND       PRES   REMARKS
NWS GREEN BAY  MIX PCPN  21  16  81 N12       29.75R WCI   9
APPLETON       CLOUDY    19  14  79 NW12G17   29.72S WCI   7
OSHKOSH        LGT SNOW  20  15  81 NW12      29.74R WCI   8
FOND DU LAC    FLURRIES  19  13  77 NW14      29.75R WCI   6
$$

WIZ022-050-052-090400-
EAST CENTRAL WISCONSIN

CITY           SKY/WX    TMP DP  RH WIND       PRES   REMARKS
EPHRAIM        LGT SNOW  19  13  80 N13G20    29.72R WCI   5
STURGEON BAY   CLOUDY    19  12  73 N16       29.75S WCI   5
MANITOWOC      LGT SNOW  23  19  85 N15G24    29.73S FOG
SHEBOYGAN      CLOUDY    24  19  81 NW12      29.72R
$$

LMZ563-521-522-541>543-090400-
LAKESHORE

STATION/POSITION TIME  TEMP    WIND        PRES    VSBY  WAVE
                       AIR SEA DIR/SP/G                  HT/PER
                 (UTC) (F)     (DEG/KT/KT) (MB)    (MI)  (FT/S)
SHEBOYGAN LKSHOR 0300   26     340/ 15/ 19 1007.4S
KEWAUNEE LKSHORE 0200   23     340/ 10/ 14 1006.1R
ALGOMA MARINA    0211          330/ 17/ 24   N/A
NORTHPORT PIER   0302   21     330/ 21     1007.1R
CHAMBERS ISLAND  0240   20     310/ 17/ 22 1007.5R
MENOMINEE LKSHOR 0200   20     320/ 11     1006.4S
$$



USA.gov is the U.S. government's official web portal to all federal, state and local government web resources and services.